Central Park, NY

3:08 AM EDT on June 22, 2018 (GMT -0400)
Central Park

Weather History for KNYC - June, 2004

Change the Weather History Date:

Wednesday, June 9, 2004

  Actual Average Record
Temperature  
Mean Temperature 81 °F 70 °F  
Max Temperature 91 °F 78 °F 97 °F (1933)
Min Temperature 71 °F 62 °F 47 °F (1980)
Degree Days  
Heating Degree Days 0 1  
Month to date heating degree days 12  
Since 1 June heating degree days 12  
Since 1 July heating degree days 4743  
Cooling Degree Days 16 6  
Month to date cooling degree days 43  
Year to date cooling degree days 112  
Since 1 June cooling degree days 43  
Growing Degree Days 31 (Base 50)    
Moisture  
Dew Point 69 °F    
Average Humidity 67    
Maximum Humidity 87    
Minimum Humidity 52    
Precipitation  
Precipitation 0.00 in 0.16 in 2.55 in (1989)
Month to date precipitation 1.44  
Year to date precipitation 21.23  
Snow  
Snow 0.00 in 0.00 in 0.00 in (2002)
Month to date snowfall 0.0  
Since 1 July snowfall 25.8  
Snow Depth -    
Sea Level Pressure  
Sea Level Pressure 29.95 in    
Wind  
Wind Speed 6 mph (WSW)    
Max Wind Speed 12 mph    
Max Gust Speed 21 mph    
Visibility 7 miles    
Events      
T = Trace of Precipitation, MM = Missing Value Source: NWS Daily Summary

Daily Weather History Graph

Daily Weather History Graph

Search for Another Location

Airport or City:

Astronomy

Jun. 09, 2004 Rise Set
Actual Time 5:24 AM EDT 8:26 PM EDT
Civil Twilight 4:51 AM EDT 8:59 PM EDT
Nautical Twilight 4:08 AM EDT 9:42 PM EDT
Astronomical Twilight 3:19 AM EDT 10:31 PM EDT
Moon 1:22 AM EDT (6/9) 12:30 PM EDT (6/9)
Length of Visible Light 16h 08m
Length of Day
15h 02m
Waning Gibbous, 52% of the Moon is Illuminated
Jun 9
Waning Gibbous
Jun 9
Last Quarter
Jun 17
New
Jun 25
First Quarter
Jul 2
Full

Hourly Weather History & Observations

Time (EDT) Temp. Heat Index Dew Point Humidity Pressure Visibility Wind Dir Wind Speed Gust Speed Precip Events Conditions
12:51 AM 73.9 °F - 66.0 °F 76% 30.09 in 7.0 mi West 8.1 mph - N/A   Clear
1:51 AM 73.9 °F - 64.9 °F 73% 30.07 in 7.0 mi Variable 5.8 mph - N/A   Clear
2:51 AM 73.0 °F - 64.9 °F 76% 30.06 in 7.0 mi WSW 5.8 mph - N/A   Clear
3:51 AM 72.0 °F - 64.9 °F 78% 30.04 in 6.0 mi Variable 6.9 mph - N/A   Haze
4:51 AM 71.1 °F - 66.0 °F 84% 30.04 in 6.0 mi WSW 5.8 mph - N/A   Haze
5:51 AM 71.1 °F - 66.9 °F 87% 30.04 in 4.0 mi WSW 8.1 mph - N/A   Clear
6:51 AM 72.0 °F - 66.9 °F 84% 30.05 in 4.0 mi Variable 3.5 mph - N/A   Haze
7:51 AM 73.9 °F - 68.0 °F 82% 30.04 in 3.0 mi Variable 3.5 mph - N/A   Haze
8:51 AM 77.0 °F - 70.0 °F 79% 30.04 in 4.0 mi Variable 6.9 mph - N/A   Haze
9:51 AM 81.0 °F 84.9 °F 71.1 °F 72% 30.02 in 4.0 mi West 5.8 mph - N/A   Haze
10:51 AM 84.0 °F 89.0 °F 71.1 °F 65% 30.01 in 5.0 mi West 5.8 mph - N/A   Haze
11:51 AM 87.1 °F 93.6 °F 72.0 °F 61% 29.98 in 6.0 mi Variable 5.8 mph - N/A   Haze
12:51 PM 89.1 °F 97.0 °F 73.0 °F 59% 29.95 in 6.0 mi Variable 5.8 mph - N/A   Haze
1:51 PM 91.0 °F 98.2 °F 72.0 °F 53% 29.92 in 7.0 mi Calm Calm - N/A   Clear
2:51 PM 90.0 °F 97.9 °F 73.0 °F 57% 29.90 in 8.0 mi Variable 4.6 mph 18.4 mph N/A   Partly Cloudy
3:51 PM 89.1 °F 96.0 °F 72.0 °F 57% 29.87 in 8.0 mi WSW 11.5 mph 19.6 mph N/A   Partly Cloudy
4:51 PM 90.0 °F 96.4 °F 71.1 °F 54% 29.85 in 8.0 mi West 8.1 mph - N/A   Partly Cloudy
5:51 PM 89.1 °F 93.7 °F 69.1 °F 52% 29.82 in 10.0 mi WSW 8.1 mph - N/A   Clear
6:51 PM 89.1 °F 94.1 °F 70.0 °F 53% 29.82 in 9.0 mi WSW 8.1 mph - N/A   Clear
7:51 PM 88.0 °F 92.1 °F 69.1 °F 53% 29.83 in 9.0 mi Variable 4.6 mph 20.7 mph N/A   Clear
8:51 PM 86.0 °F 90.7 °F 70.0 °F 59% 29.84 in 9.0 mi Variable 4.6 mph - N/A   Clear
9:51 PM 84.9 °F 90.1 °F 71.1 °F 63% 29.86 in 8.0 mi West 8.1 mph - N/A   Clear
10:51 PM 84.9 °F 90.1 °F 71.1 °F 63% 29.86 in 8.0 mi West 8.1 mph - N/A   Clear
11:51 PM 84.0 °F 88.4 °F 70.0 °F 63% 29.85 in 9.0 mi West 5.8 mph - N/A   Mostly Cloudy